�������l�o���
Date,Time,MP-1(��Sv/h),MP-2(��Sv/h),MP-3(��Sv/h),MP-4(��Sv/h),MP-5(��Sv/h),MP-6(��Sv/h),MP-7(��Sv/h),MP-8(��Sv/h),����,����(m/s),���J
2022/04/03,00:00,0.583,0.872,0.551,1.069,0.754,0.348,0.602,0.571,��쐼,2.8,��
2022/04/03,00:10,0.582,0.871,0.551,1.068,0.754,0.347,0.604,0.572,��쐼,2.9,��
2022/04/03,00:20,0.583,0.870,0.551,1.070,0.756,0.349,0.604,0.571,��쐼,3.0,��
2022/04/03,00:30,0.583,0.872,0.551,1.071,0.754,0.349,0.605,0.572,�쐼,2.6,��
2022/04/03,00:40,0.583,0.869,0.552,1.070,0.755,0.349,0.603,0.572,��쐼,2.5,��
2022/04/03,00:50,0.583,0.869,0.551,1.072,0.753,0.348,0.605,0.572,��쐼,3.1,��
2022/04/03,01:00,0.583,0.869,0.552,1.070,0.753,0.348,0.605,0.573,��,3.6,��
2022/04/03,01:10,0.583,0.870,0.550,1.069,0.754,0.349,0.604,0.572,��,3.7,��
2022/04/03,01:20,0.583,0.871,0.551,1.071,0.754,0.348,0.605,0.573,��쐼,3.8,��
2022/04/03,01:30,0.582,0.870,0.552,1.069,0.754,0.349,0.604,0.572,��쐼,4.2,��
2022/04/03,01:40,0.584,0.870,0.552,1.071,0.753,0.349,0.603,0.573,��쐼,5.0,��
2022/04/03,01:50,0.583,0.871,0.550,1.072,0.752,0.349,0.604,0.571,��쐼,5.1,��
2022/04/03,02:00,0.582,0.872,0.552,1.070,0.753,0.349,0.605,0.572,��쐼,5.2,��
2022/04/03,02:10,0.582,0.871,0.553,1.071,0.753,0.349,0.604,0.573,��,4.4,��
2022/04/03,02:20,0.582,0.870,0.553,1.071,0.751,0.349,0.604,0.573,��쐼,6.3,��
2022/04/03,02:30,0.583,0.870,0.552,1.071,0.754,0.350,0.603,0.572,��쐼,6.7,��
2022/04/03,02:40,0.584,0.870,0.552,1.069,0.752,0.349,0.604,0.573,��쐼,5.3,��
2022/04/03,02:50,0.582,0.872,0.553,1.071,0.754,0.349,0.604,0.571,��쐼,4.4,��
2022/04/03,03:00,0.582,0.871,0.552,1.070,0.752,0.349,0.603,0.572,��쐼,3.7,��
2022/04/03,03:10,0.583,0.871,0.552,1.069,0.751,0.349,0.603,0.571,��쐼,3.4,��
2022/04/03,03:20,0.583,0.870,0.553,1.069,0.754,0.348,0.603,0.573,��쐼,2.9,��
2022/04/03,03:30,0.582,0.870,0.553,1.068,0.752,0.349,0.604,0.571,�쐼,2.3,��
2022/04/03,03:40,0.582,0.870,0.552,1.071,0.753,0.348,0.604,0.572,�쐼,2.3,��
2022/04/03,03:50,0.583,0.869,0.552,1.072,0.752,0.348,0.603,0.573,���쐼,2.2,��
2022/04/03,04:00,0.582,0.872,0.552,1.071,0.754,0.349,0.603,0.572,���쐼,1.7,��
2022/04/03,04:10,0.582,0.869,0.552,1.069,0.754,0.349,0.604,0.572,�쐼,1.4,��
2022/04/03,04:20,0.582,0.871,0.553,1.068,0.754,0.349,0.604,0.573,���쐼,1.5,��
2022/04/03,04:30,0.580,0.869,0.552,1.070,0.753,0.347,0.604,0.573,�쐼,0.9,��
2022/04/03,04:40,0.583,0.870,0.551,1.069,0.753,0.349,0.603,0.573,��쐼,0.8,��
2022/04/03,04:50,0.582,0.869,0.551,1.071,0.752,0.348,0.604,0.571,�쐼,1.2,��
2022/04/03,05:00,0.583,0.870,0.552,1.069,0.753,0.349,0.604,0.572,�쐼,1.7,��
2022/04/03,05:10,0.581,0.872,0.551,1.069,0.751,0.347,0.605,0.570,�쐼,2.0,��
2022/04/03,05:20,0.583,0.871,0.552,1.069,0.752,0.348,0.605,0.571,�쐼,1.4,��
2022/04/03,05:30,0.583,0.869,0.552,1.071,0.752,0.347,0.603,0.572,��쐼,2.0,��
2022/04/03,05:40,0.581,0.870,0.550,1.070,0.753,0.348,0.604,0.574,�쐼,1.9,��
2022/04/03,05:50,0.582,0.868,0.553,1.069,0.752,0.348,0.604,0.571,�쐼,1.1,��
2022/04/03,06:00,0.582,0.871,0.552,1.073,0.753,0.349,0.605,0.572,��쐼,1.2,��
2022/04/03,06:10,0.581,0.870,0.550,1.070,0.753,0.349,0.605,0.571,��쐼,0.6,��
2022/04/03,06:20,0.582,0.871,0.554,1.071,0.752,0.349,0.603,0.572,-,CALM,��
2022/04/03,06:30,0.583,0.870,0.552,1.070,0.755,0.349,0.604,0.571,�k��,1.1,��
2022/04/03,06:40,0.582,0.871,0.552,1.071,0.754,0.348,0.604,0.572,�k�k��,2.6,��
2022/04/03,06:50,0.583,0.872,0.552,1.069,0.756,0.349,0.604,0.572,�k,2.9,��
2022/04/03,07:00,0.582,0.872,0.552,1.071,0.752,0.350,0.604,0.572,�k�k��,3.7,��
2022/04/03,07:10,0.583,0.871,0.554,1.070,0.754,0.349,0.604,0.572,�k,3.2,��
2022/04/03,07:20,0.581,0.872,0.551,1.072,0.752,0.350,0.605,0.575,�k�k��,3.8,��
2022/04/03,07:30,0.582,0.872,0.552,1.070,0.752,0.350,0.607,0.572,�k,3.4,��
2022/04/03,07:40,0.584,0.873,0.552,1.072,0.753,0.350,0.605,0.574,�k,3.6,��
2022/04/03,07:50,0.584,0.871,0.553,1.071,0.752,0.349,0.604,0.572,�k,3.3,��
2022/04/03,08:00,0.584,0.871,0.553,1.070,0.754,0.349,0.607,0.572,�k,3.4,��
2022/04/03,08:10,0.583,0.873,0.554,1.072,0.753,0.349,0.607,0.573,�k,3.1,��
2022/04/03,08:20,0.584,0.872,0.554,1.072,0.754,0.348,0.605,0.574,�k�k��,4.1,��
2022/04/03,08:30,0.583,0.869,0.553,1.071,0.753,0.349,0.605,0.574,�k�k��,3.9,��
2022/04/03,08:40,0.584,0.870,0.553,1.071,0.755,0.348,0.606,0.574,�k�k��,4.9,��
2022/04/03,08:50,0.584,0.869,0.551,1.073,0.754,0.349,0.604,0.573,�k�k��,5.1,��
2022/04/03,09:00,0.583,0.868,0.553,1.071,0.755,0.349,0.603,0.574,�k�k��,5.0,��
2022/04/03,09:10,0.584,0.869,0.555,1.070,0.754,0.350,0.603,0.573,�k�k��,4.8,��
2022/04/03,09:20,0.584,0.870,0.552,1.072,0.753,0.349,0.603,0.572,�k�k��,4.9,��
2022/04/03,09:30,0.583,0.869,0.552,1.072,0.754,0.348,0.603,0.571,�k�k��,4.3,��
2022/04/03,09:40,0.583,0.871,0.552,1.073,0.753,0.348,0.604,0.572,�k�k��,4.2,��
2022/04/03,09:50,0.583,0.871,0.552,1.073,0.757,0.349,0.604,0.571,�k�k��,4.3,��
2022/04/03,10:00,0.583,0.870,0.553,1.071,0.755,0.348,0.605,0.572,�k��,3.8,��
2022/04/03,10:10,0.582,0.870,0.552,1.073,0.756,0.349,0.604,0.572,�k��,3.8,��
2022/04/03,10:20,0.584,0.869,0.554,1.071,0.755,0.348,0.604,0.570,�k�k��,3.8,��
2022/04/03,10:30,0.585,0.871,0.551,1.071,0.755,0.349,0.603,0.570,�k�k��,4.4,��
2022/04/03,10:40,0.585,0.872,0.554,1.072,0.754,0.349,0.604,0.570,�k��,3.8,��
2022/04/03,10:50,0.585,0.871,0.552,1.071,0.757,0.349,0.603,0.571,�k��,4.3,��
2022/04/03,11:00,0.586,0.871,0.555,1.073,0.757,0.350,0.604,0.570,�k�k��,4.4,��
2022/04/03,11:10,0.585,0.870,0.552,1.071,0.756,0.348,0.603,0.571,�k�k��,4.8,��
2022/04/03,11:20,0.585,0.870,0.555,1.072,0.753,0.349,0.604,0.572,�k�k��,3.8,��
2022/04/03,11:30,0.584,0.872,0.553,1.072,0.753,0.347,0.604,0.571,�k��,3.2,��
2022/04/03,11:40,0.584,0.870,0.553,1.071,0.755,0.349,0.605,0.571,�k��,3.0,��
2022/04/03,11:50,0.584,0.872,0.552,1.073,0.753,0.348,0.606,0.573,�k��,3.1,��
2022/04/03,12:00,0.584,0.871,0.554,1.073,0.754,0.348,0.606,0.572,�k��,3.0,��
2022/04/03,12:10,0.584,0.872,0.552,1.072,0.754,0.347,0.605,0.572,���k��,2.9,��
2022/04/03,12:20,0.587,0.869,0.554,1.074,0.756,0.349,0.603,0.573,�k��,3.1,��
2022/04/03,12:30,0.586,0.868,0.554,1.070,0.753,0.349,0.605,0.572,�k��,3.5,��
2022/04/03,12:40,0.584,0.870,0.553,1.072,0.755,0.348,0.605,0.571,�k��,3.1,��
2022/04/03,12:50,0.586,0.871,0.555,1.071,0.756,0.350,0.606,0.570,�k�k��,3.0,��
2022/04/03,13:00,0.585,0.873,0.554,1.070,0.755,0.349,0.606,0.570,��,2.3,��
2022/04/03,13:10,0.586,0.871,0.552,1.071,0.756,0.350,0.606,0.570,���k��,2.0,��
2022/04/03,13:20,0.584,0.872,0.552,1.073,0.755,0.351,0.605,0.570,��,1.1,��
2022/04/03,13:30,0.585,0.873,0.552,1.073,0.754,0.349,0.607,0.571,���k��,2.5,��
2022/04/03,13:40,0.584,0.871,0.551,1.073,0.756,0.350,0.606,0.570,�쓌,1.5,��
2022/04/03,13:50,0.584,0.872,0.552,1.072,0.754,0.349,0.603,0.571,�쓌,1.2,��
2022/04/03,14:00,0.584,0.872,0.551,1.073,0.757,0.351,0.605,0.572,�쓌,1.5,��
2022/04/03,14:10,0.585,0.871,0.551,1.075,0.755,0.351,0.605,0.572,�쓌,2.6,��
2022/04/03,14:20,0.583,0.873,0.553,1.071,0.755,0.350,0.605,0.572,���쓌,2.4,��
2022/04/03,14:30,0.585,0.873,0.552,1.072,0.755,0.351,0.606,0.573,���쓌,2.6,��
2022/04/03,14:40,0.584,0.873,0.554,1.074,0.756,0.350,0.605,0.573,�쓌,2.6,��
2022/04/03,14:50,0.584,0.874,0.552,1.074,0.757,0.350,0.604,0.572,���쓌,2.4,��
2022/04/03,15:00,0.584,0.874,0.555,1.072,0.756,0.350,0.604,0.571,��,2.1,��
2022/04/03,15:10,0.582,0.874,0.553,1.074,0.756,0.351,0.604,0.570,���쓌,3.2,��
2022/04/03,15:20,0.584,0.875,0.552,1.073,0.756,0.351,0.606,0.570,�쓌,2.9,��
2022/04/03,15:30,0.584,0.874,0.553,1.076,0.754,0.350,0.606,0.572,�쓌,3.9,��
2022/04/03,15:40,0.585,0.874,0.553,1.074,0.756,0.351,0.604,0.571,�쓌,4.4,��
2022/04/03,15:50,0.584,0.873,0.552,1.071,0.755,0.350,0.605,0.571,�쓌,3.5,��
2022/04/03,16:00,0.584,0.876,0.553,1.072,0.755,0.351,0.605,0.570,�쓌,3.0,��
2022/04/03,16:10,0.583,0.876,0.553,1.072,0.753,0.349,0.604,0.571,�쓌,3.8,��
2022/04/03,16:20,0.581,0.876,0.554,1.073,0.755,0.350,0.604,0.571,��쓌,3.6,��
2022/04/03,16:30,0.583,0.875,0.555,1.071,0.755,0.350,0.605,0.570,��쓌,5.1,��
2022/04/03,16:40,0.586,0.874,0.555,1.073,0.755,0.351,0.604,0.573,��쓌,6.5,��
2022/04/03,16:50,0.586,0.876,0.556,1.072,0.758,0.351,0.604,0.572,��,6.2,��
2022/04/03,17:00,0.588,0.876,0.556,1.073,0.758,0.351,0.605,0.573,��,6.3,��
2022/04/03,17:10,0.585,0.876,0.555,1.076,0.757,0.350,0.605,0.573,��,6.3,��
2022/04/03,17:20,0.587,0.877,0.555,1.072,0.759,0.351,0.604,0.573,��,6.1,��
2022/04/03,17:30,0.587,0.876,0.554,1.073,0.759,0.350,0.604,0.575,��,5.3,��
2022/04/03,17:40,0.587,0.878,0.556,1.072,0.759,0.351,0.607,0.574,��,6.1,��
2022/04/03,17:50,0.586,0.876,0.555,1.074,0.757,0.349,0.605,0.574,��,4.7,��
2022/04/03,18:00,0.585,0.876,0.554,1.074,0.759,0.351,0.605,0.573,��,4.7,��
2022/04/03,18:10,0.587,0.872,0.555,1.070,0.759,0.352,0.606,0.573,��,6.8,��
2022/04/03,18:20,0.588,0.875,0.554,1.071,0.757,0.349,0.606,0.575,��,7.1,��
2022/04/03,18:30,0.587,0.876,0.554,1.071,0.760,0.350,0.606,0.574,��,7.4,��
2022/04/03,18:40,0.586,0.878,0.554,1.075,0.757,0.350,0.607,0.574,��,6.8,��
2022/04/03,18:50,0.587,0.875,0.555,1.074,0.757,0.350,0.607,0.573,��쐼,6.5,��
2022/04/03,19:00,0.586,0.875,0.556,1.072,0.758,0.348,0.607,0.573,��,6.9,��
2022/04/03,19:10,0.586,0.875,0.556,1.075,0.757,0.350,0.607,0.574,��,7.2,��
2022/04/03,19:20,0.587,0.873,0.555,1.075,0.758,0.350,0.608,0.573,��쐼,7.0,�L
2022/04/03,19:30,0.586,0.875,0.554,1.073,0.756,0.350,0.608,0.573,��쐼,6.9,�L
2022/04/03,19:40,0.587,0.876,0.555,1.075,0.759,0.350,0.605,0.573,��쐼,7.3,�L
2022/04/03,19:50,0.587,0.876,0.555,1.074,0.758,0.351,0.606,0.573,��쐼,7.9,�L
2022/04/03,20:00,0.587,0.873,0.556,1.072,0.757,0.349,0.606,0.574,��쐼,7.3,�L
2022/04/03,20:10,0.587,0.876,0.553,1.074,0.756,0.350,0.607,0.574,��쐼,7.1,�L
2022/04/03,20:20,0.587,0.875,0.555,1.071,0.757,0.350,0.606,0.573,��쐼,6.7,�L
2022/04/03,20:30,0.586,0.876,0.554,1.073,0.755,0.349,0.605,0.574,��쐼,6.5,�L
2022/04/03,20:40,0.586,0.877,0.555,1.072,0.755,0.350,0.604,0.573,��쐼,7.5,�L
2022/04/03,20:50,0.587,0.872,0.555,1.073,0.755,0.351,0.606,0.573,��쐼,6.9,�L
2022/04/03,21:00,0.584,0.873,0.555,1.075,0.756,0.351,0.605,0.572,�쐼,6.9,�L
2022/04/03,21:10,0.585,0.873,0.554,1.072,0.754,0.350,0.607,0.572,�쐼,6.5,�L
2022/04/03,21:20,0.586,0.875,0.554,1.075,0.755,0.351,0.607,0.572,�쐼,7.0,�L
2022/04/03,21:30,0.586,0.873,0.556,1.071,0.756,0.349,0.605,0.574,�쐼,7.5,�L
2022/04/03,21:40,0.586,0.871,0.554,1.073,0.756,0.349,0.606,0.572,�쐼,6.9,�L
2022/04/03,21:50,0.586,0.876,0.555,1.071,0.754,0.348,0.606,0.573,�쐼,7.3,�L
2022/04/03,22:00,0.586,0.872,0.556,1.073,0.754,0.350,0.604,0.571,�쐼,7.9,�L
2022/04/03,22:10,0.586,0.875,0.556,1.072,0.753,0.348,0.607,0.574,�쐼,7.8,�L
2022/04/03,22:20,0.586,0.873,0.555,1.073,0.754,0.351,0.607,0.573,�쐼,7.2,�L
2022/04/03,22:30,0.586,0.873,0.554,1.073,0.754,0.350,0.607,0.572,�쐼,7.0,�L
2022/04/03,22:40,0.586,0.873,0.554,1.073,0.754,0.349,0.605,0.573,�쐼,6.7,�L
2022/04/03,22:50,0.587,0.874,0.554,1.073,0.754,0.351,0.608,0.572,�쐼,6.6,�L
2022/04/03,23:00,0.586,0.871,0.554,1.073,0.755,0.349,0.606,0.572,���쐼,7.0,�L
2022/04/03,23:10,0.585,0.873,0.554,1.072,0.755,0.350,0.607,0.573,���쐼,6.8,�L
2022/04/03,23:20,0.587,0.873,0.554,1.074,0.756,0.350,0.607,0.574,���쐼,6.2,�L
2022/04/03,23:30,0.586,0.872,0.553,1.073,0.753,0.349,0.607,0.574,���쐼,5.6,�L
2022/04/03,23:40,0.587,0.873,0.554,1.074,0.754,0.350,0.607,0.572,���쐼,6.0,�L
2022/04/03,23:50,0.586,0.873,0.551,1.072,0.753,0.351,0.608,0.572,���쐼,6.1,�L
